Time,TemperatureF,DewpointF,PressureIn,WindDirection,WindDirectionDegrees,WindSpeedMPH,WindSpeedGustMPH,Humidity,HourlyPrecipIn,Conditions,Clouds,dailyrainin,SolarRadiationWatts/m^2,SoftwareType,DateUTC
2013-02-02 00:01:00,2.1,-1.4,30.10,ENE,67,1.0,3.0,85,0.00,,---,0.00,0.00,VWS V14.01,2013-02-02 06:01:00,
2013-02-02 00:07:00,2.1,-1.4,30.10,ENE,67,4.0,4.0,85,0.00,,---,0.00,0.00,VWS V14.01,2013-02-02 06:07:00,
2013-02-02 00:12:00,2.0,-1.5,30.10,ENE,67,2.0,3.0,85,0.00,,---,0.00,0.00,VWS V14.01,2013-02-02 06:12:00,
2013-02-02 00:17:00,2.1,-1.4,30.11,ENE,64,3.0,3.0,85,0.00,,---,0.00,0.00,VWS V14.01,2013-02-02 06:17:00,
2013-02-02 00:22:00,2.1,-1.4,30.11,ENE,64,2.0,2.0,85,0.00,,---,0.00,0.00,VWS V14.01,2013-02-02 06:22:00,
2013-02-02 00:27:00,2.1,-1.4,30.11,ENE,61,2.0,4.0,85,0.00,,---,0.00,0.00,VWS V14.01,2013-02-02 06:27:00,
2013-02-02 00:32:00,2.1,-1.4,30.12,ENE,58,1.0,3.0,85,0.00,,---,0.00,0.00,VWS V14.01,2013-02-02 06:32:00,
2013-02-02 00:37:00,2.1,-1.4,30.12,ENE,57,3.0,4.0,85,0.00,,---,0.00,0.00,VWS V14.01,2013-02-02 06:37:00,
2013-02-02 00:42:00,2.2,-1.3,30.12,ENE,57,5.0,5.0,85,0.00,,---,0.00,0.00,VWS V14.01,2013-02-02 06:42:00,
2013-02-02 00:47:00,2.1,-1.4,30.12,ENE,57,1.0,3.0,85,0.00,,---,0.00,0.00,VWS V14.01,2013-02-02 06:47:00,
2013-02-02 00:52:00,2.2,-1.3,30.12,ENE,58,3.0,4.0,85,0.00,,---,0.00,0.00,VWS V14.01,2013-02-02 06:52:00,
2013-02-02 00:57:00,2.2,-1.3,30.12,ENE,57,0.0,5.0,85,0.00,,---,0.00,0.00,VWS V14.01,2013-02-02 06:57:00,
2013-02-02 01:02:00,2.1,-1.6,30.12,ENE,57,0.0,3.0,84,0.00,,---,0.00,0.00,VWS V14.01,2013-02-02 07:02:00,
2013-02-02 01:07:00,2.1,-1.6,30.12,ENE,57,3.0,5.0,84,0.00,,---,0.00,0.00,VWS V14.01,2013-02-02 07:07:00,
2013-02-02 01:12:00,2.0,-1.7,30.12,NE,53,2.0,4.0,84,0.00,,---,0.00,0.00,VWS V14.01,2013-02-02 07:12:00,
2013-02-02 01:18:00,1.9,-1.8,30.12,NE,50,1.0,5.0,84,0.00,,---,0.00,0.00,VWS V14.01,2013-02-02 07:18:00,
2013-02-02 01:23:00,1.9,-1.8,30.12,NE,49,2.0,3.0,84,0.00,,---,0.00,0.00,VWS V14.01,2013-02-02 07:23:00,
2013-02-02 01:28:00,1.9,-1.8,30.12,NE,49,1.0,1.0,84,0.00,,---,0.00,0.00,VWS V14.01,2013-02-02 07:28:00,
2013-02-02 01:33:00,1.9,-1.8,30.12,NE,50,2.0,3.0,84,0.00,,---,0.00,0.00,VWS V14.01,2013-02-02 07:33:00,
2013-02-02 01:38:00,1.9,-1.8,30.12,NE,50,0.0,1.0,84,0.00,,---,0.00,0.00,VWS V14.01,2013-02-02 07:38:00,
2013-02-02 01:43:00,2.0,-1.7,30.12,NE,50,1.0,2.0,84,0.00,,---,0.00,0.00,VWS V14.01,2013-02-02 07:43:00,
2013-02-02 01:48:00,2.0,-1.7,30.13,NE,49,3.0,4.0,84,0.00,,---,0.00,0.00,VWS V14.01,2013-02-02 07:48:00,
2013-02-02 01:53:00,1.9,-1.8,30.13,NE,50,1.0,2.0,84,0.00,,---,0.00,0.00,VWS V14.01,2013-02-02 07:53:00,
2013-02-02 01:58:00,2.0,-1.7,30.13,NE,50,0.0,3.0,84,0.00,,---,0.00,0.00,VWS V14.01,2013-02-02 07:58:00,
2013-02-02 02:06:00,1.9,-1.8,30.13,NE,50,3.0,3.0,84,0.00,,---,0.00,0.00,VWS V14.01,2013-02-02 08:06:00,
2013-02-02 02:11:00,1.9,-1.8,30.13,NE,43,3.0,6.0,84,0.00,,---,0.00,0.00,VWS V14.01,2013-02-02 08:11:00,
2013-02-02 02:16:00,1.9,-1.8,30.14,NE,37,1.0,6.0,84,0.00,,---,0.00,0.00,VWS V14.01,2013-02-02 08:16:00,
2013-02-02 02:21:00,1.9,-1.8,30.14,NE,37,2.0,4.0,84,0.00,,---,0.00,0.00,VWS V14.01,2013-02-02 08:21:00,
2013-02-02 02:26:00,1.9,-1.8,30.14,NE,37,0.0,5.0,84,0.00,,---,0.00,0.00,VWS V14.01,2013-02-02 08:26:00,
2013-02-02 02:31:00,1.9,-1.8,30.14,NE,37,3.0,4.0,84,0.00,,---,0.00,0.00,VWS V14.01,2013-02-02 08:31:00,
2013-02-02 02:36:00,1.9,-1.8,30.14,NE,37,4.0,5.0,84,0.00,,---,0.00,0.00,VWS V14.01,2013-02-02 08:36:00,
2013-02-02 02:41:00,1.9,-1.8,30.14,NE,37,2.0,3.0,84,0.00,,---,0.00,0.00,VWS V14.01,2013-02-02 08:41:00,
2013-02-02 02:46:00,1.9,-1.8,30.14,NNE,33,3.0,7.0,84,0.00,,---,0.00,0.00,VWS V14.01,2013-02-02 08:46:00,
2013-02-02 02:51:00,1.9,-1.8,30.14,NNE,32,2.0,5.0,84,0.00,,---,0.00,0.00,VWS V14.01,2013-02-02 08:51:00,
2013-02-02 02:56:00,1.8,-1.9,30.14,NNE,30,4.0,5.0,84,0.00,,---,0.00,0.00,VWS V14.01,2013-02-02 08:56:00,
2013-02-02 03:01:00,1.8,-1.9,30.15,NNE,26,3.0,3.0,84,0.00,,---,0.00,0.00,VWS V14.01,2013-02-02 09:01:00,
2013-02-02 03:06:00,1.9,-1.8,30.15,NNE,27,3.0,3.0,84,0.00,,---,0.00,0.00,VWS V14.01,2013-02-02 09:06:00,
2013-02-02 03:11:00,1.9,-1.8,30.15,NNE,26,2.0,3.0,84,0.00,,---,0.00,0.00,VWS V14.01,2013-02-02 09:11:00,
2013-02-02 03:16:00,1.9,-1.8,30.15,NNE,27,3.0,5.0,84,0.00,,---,0.00,0.00,VWS V14.01,2013-02-02 09:16:00,
2013-02-02 03:21:00,1.8,-1.9,30.15,NNE,18,3.0,7.0,84,0.00,,---,0.00,0.00,VWS V14.01,2013-02-02 09:21:00,
2013-02-02 03:26:00,1.8,-1.9,30.15,North,5,5.0,7.0,84,0.00,,---,0.00,0.00,VWS V14.01,2013-02-02 09:26:00,
2013-02-02 03:32:00,1.8,-1.9,30.15,North,5,2.0,6.0,84,0.00,,---,0.00,0.00,VWS V14.01,2013-02-02 09:32:00,
2013-02-02 03:37:00,1.8,-1.9,30.15,North,355,7.0,9.0,84,0.00,,---,0.00,0.00,VWS V14.01,2013-02-02 09:37:00,
2013-02-02 03:42:00,1.7,-2.0,30.15,North,355,3.0,5.0,84,0.00,,---,0.00,0.00,VWS V14.01,2013-02-02 09:42:00,
2013-02-02 03:47:00,1.7,-2.0,30.16,North,355,4.0,6.0,84,0.00,,---,0.00,0.00,VWS V14.01,2013-02-02 09:47:00,
2013-02-02 03:52:00,1.7,-2.0,30.16,North,355,5.0,9.0,84,0.00,,---,0.00,0.00,VWS V14.01,2013-02-02 09:52:00,
2013-02-02 03:57:00,1.7,-2.0,30.16,North,350,5.0,6.0,84,0.00,,---,0.00,0.00,VWS V14.01,2013-02-02 09:57:00,
2013-02-02 04:02:00,1.6,-2.4,30.17,North,349,2.0,6.0,83,0.00,,---,0.00,0.00,VWS V14.01,2013-02-02 10:02:00,
2013-02-02 04:07:00,1.7,-2.0,30.17,North,349,4.0,5.0,84,0.00,,---,0.00,0.00,VWS V14.01,2013-02-02 10:07:00,
2013-02-02 04:12:00,1.7,-2.0,30.17,NNW,348,3.0,5.0,84,0.00,,---,0.00,0.00,VWS V14.01,2013-02-02 10:12:00,
2013-02-02 04:17:00,1.7,-2.3,30.17,NNW,348,3.0,4.0,83,0.00,,---,0.00,0.00,VWS V14.01,2013-02-02 10:17:00,
2013-02-02 04:22:00,1.7,-2.3,30.17,NNW,348,2.0,4.0,83,0.00,,---,0.00,0.00,VWS V14.01,2013-02-02 10:22:00,
2013-02-02 04:27:00,1.7,-2.3,30.17,NNW,348,4.0,5.0,83,0.00,,---,0.00,0.00,VWS V14.01,2013-02-02 10:27:00,
2013-02-02 04:32:00,1.8,-2.2,30.17,NNW,348,1.0,6.0,83,0.00,,---,0.00,0.00,VWS V14.01,2013-02-02 10:32:00,
2013-02-02 04:37:00,1.8,-2.2,30.17,NNW,348,2.0,7.0,83,0.00,,---,0.00,0.00,VWS V14.01,2013-02-02 10:37:00,
2013-02-02 04:42:00,1.8,-2.2,30.17,NNW,348,2.0,7.0,83,0.00,,---,0.00,0.00,VWS V14.01,2013-02-02 10:42:00,
2013-02-02 04:47:00,1.8,-2.2,30.17,NNW,348,3.0,5.0,83,0.00,,---,0.00,0.00,VWS V14.01,2013-02-02 10:47:00,
2013-02-02 04:52:00,1.8,-2.2,30.17,NNW,348,3.0,6.0,83,0.00,,---,0.00,0.00,VWS V14.01,2013-02-02 10:52:00,
2013-02-02 04:57:00,1.8,-2.2,30.17,NNW,348,2.0,7.0,83,0.00,,---,0.00,0.00,VWS V14.01,2013-02-02 10:57:00,
2013-02-02 05:02:00,1.8,-2.2,30.18,NNW,348,3.0,6.0,83,0.00,,---,0.00,0.00,VWS V14.01,2013-02-02 11:02:00,
2013-02-02 05:07:00,1.8,-2.2,30.18,NNW,348,3.0,5.0,83,0.00,,---,0.00,0.00,VWS V14.01,2013-02-02 11:07:00,
2013-02-02 05:13:00,1.8,-2.2,30.18,NNW,348,4.0,6.0,83,0.00,,---,0.00,0.00,VWS V14.01,2013-02-02 11:13:00,
2013-02-02 05:18:00,1.9,-1.8,30.18,NNW,348,5.0,5.0,84,0.00,,---,0.00,0.00,VWS V14.01,2013-02-02 11:18:00,
2013-02-02 05:23:00,1.8,-2.2,30.18,NNW,348,3.0,6.0,83,0.00,,---,0.00,0.00,VWS V14.01,2013-02-02 11:23:00,
2013-02-02 05:28:00,1.8,-2.2,30.18,NNW,348,3.0,6.0,83,0.00,,---,0.00,0.00,VWS V14.01,2013-02-02 11:28:00,
2013-02-02 05:33:00,1.8,-2.2,30.19,NNW,346,3.0,5.0,83,0.00,,---,0.00,0.00,VWS V14.01,2013-02-02 11:33:00,
2013-02-02 05:38:00,1.7,-2.3,30.19,NNW,345,4.0,7.0,83,0.00,,---,0.00,0.00,VWS V14.01,2013-02-02 11:38:00,
2013-02-02 05:43:00,1.7,-2.3,30.19,North,349,3.0,10.0,83,0.00,,---,0.00,0.00,VWS V14.01,2013-02-02 11:43:00,
2013-02-02 05:48:00,1.7,-2.3,30.20,NNW,348,4.0,6.0,83,0.00,,---,0.00,0.00,VWS V14.01,2013-02-02 11:48:00,
2013-02-02 05:53:00,1.6,-2.4,30.20,NNW,338,7.0,8.0,83,0.00,,---,0.00,0.00,VWS V14.01,2013-02-02 11:53:00,
2013-02-02 05:58:00,1.6,-2.4,30.20,NNW,340,4.0,5.0,83,0.00,,---,0.00,0.00,VWS V14.01,2013-02-02 11:58:00,
2013-02-02 06:03:00,1.6,-2.4,30.20,NNW,347,2.0,4.0,83,0.00,,---,0.00,0.00,VWS V14.01,2013-02-02 12:03:00,
2013-02-02 06:08:00,1.6,-2.4,30.20,NNW,336,5.0,9.0,83,0.00,,---,0.00,0.00,VWS V14.01,2013-02-02 12:08:00,
2013-02-02 06:13:00,1.5,-2.5,30.20,NNW,341,6.0,7.0,83,0.00,,---,0.00,0.00,VWS V14.01,2013-02-02 12:13:00,
2013-02-02 06:18:00,1.5,-2.5,30.20,NNW,341,7.0,7.0,83,0.00,,---,0.00,0.00,VWS V14.01,2013-02-02 12:18:00,
2013-02-02 06:23:00,1.5,-2.7,30.20,NNW,342,5.0,7.0,82,0.00,,---,0.00,0.00,VWS V14.01,2013-02-02 12:23:00,
2013-02-02 06:28:00,1.4,-2.8,30.20,NNW,344,4.0,7.0,82,0.00,,---,0.00,0.00,VWS V14.01,2013-02-02 12:28:00,
2013-02-02 06:33:00,1.3,-2.9,30.20,NNW,348,3.0,7.0,82,0.00,,---,0.00,0.00,VWS V14.01,2013-02-02 12:33:00,
2013-02-02 06:38:00,1.3,-2.9,30.20,NNW,342,6.0,6.0,82,0.00,,---,0.00,0.00,VWS V14.01,2013-02-02 12:38:00,
2013-02-02 06:43:00,1.1,-3.1,30.20,North,350,4.0,7.0,82,0.00,,---,0.00,0.00,VWS V14.01,2013-02-02 12:43:00,
2013-02-02 06:49:00,1.0,-3.2,30.20,North,360,5.0,6.0,82,0.00,,---,0.00,0.00,VWS V14.01,2013-02-02 12:49:00,
2013-02-02 06:54:00,1.0,-3.5,30.20,North,351,1.0,3.0,81,0.00,,---,0.00,0.00,VWS V14.01,2013-02-02 12:54:00,
2013-02-02 06:59:00,1.0,-3.5,30.20,North,355,2.0,3.0,81,0.00,,---,0.00,0.00,VWS V14.01,2013-02-02 12:59:00,
2013-02-02 07:04:00,0.9,-3.3,30.21,North,355,2.0,6.0,82,0.00,,---,0.00,0.00,VWS V14.01,2013-02-02 13:04:00,
2013-02-02 07:09:00,0.9,-3.3,30.21,North,355,2.0,3.0,82,0.00,,---,0.00,0.00,VWS V14.01,2013-02-02 13:09:00,
2013-02-02 07:14:00,0.9,-3.3,30.21,North,355,2.0,2.0,82,0.00,,---,0.00,0.00,VWS V14.01,2013-02-02 13:14:00,
2013-02-02 07:19:00,0.8,-3.4,30.20,North,355,3.0,3.0,82,0.00,,---,0.00,0.00,VWS V14.01,2013-02-02 13:19:00,
2013-02-02 07:24:00,0.6,-3.6,30.20,North,355,2.0,4.0,82,0.00,,---,0.00,0.00,VWS V14.01,2013-02-02 13:24:00,
2013-02-02 07:29:00,0.5,-3.7,30.20,North,355,1.0,2.0,82,0.00,,---,0.00,0.00,VWS V14.01,2013-02-02 13:29:00,
2013-02-02 07:34:00,0.4,-3.8,30.20,North,355,2.0,2.0,82,0.00,,---,0.00,5.00,VWS V14.01,2013-02-02 13:34:00,
2013-02-02 07:39:00,0.4,-3.8,30.20,North,355,1.0,4.0,82,0.00,,---,0.00,9.00,VWS V14.01,2013-02-02 13:39:00,
2013-02-02 07:44:00,0.3,-3.9,30.20,North,355,1.0,2.0,82,0.00,,---,0.00,16.00,VWS V14.01,2013-02-02 13:44:00,
2013-02-02 07:50:00,0.3,-3.9,30.21,North,355,2.0,5.0,82,0.00,,---,0.00,21.00,VWS V14.01,2013-02-02 13:50:00,
2013-02-02 07:55:00,0.4,-3.8,30.21,North,355,1.0,4.0,82,0.00,,---,0.00,30.00,VWS V14.01,2013-02-02 13:55:00,
2013-02-02 08:00:00,0.4,-3.8,30.21,North,355,2.0,3.0,82,0.00,,---,0.00,47.00,VWS V14.01,2013-02-02 14:00:00,
2013-02-02 08:05:00,0.5,-3.7,30.22,North,355,3.0,3.0,82,0.00,,---,0.00,40.00,VWS V14.01,2013-02-02 14:05:00,
2013-02-02 08:10:00,0.5,-3.7,30.22,North,355,0.0,3.0,82,0.00,,---,0.00,47.00,VWS V14.01,2013-02-02 14:10:00,
2013-02-02 08:15:00,0.5,-3.9,30.22,North,355,0.0,2.0,81,0.00,,---,0.00,46.00,VWS V14.01,2013-02-02 14:15:00,
2013-02-02 08:20:00,0.6,-3.8,30.21,North,355,1.0,2.0,81,0.00,,---,0.00,56.00,VWS V14.01,2013-02-02 14:20:00,
2013-02-02 08:25:00,0.7,-3.8,30.21,North,355,0.0,1.0,81,0.00,,---,0.00,65.00,VWS V14.01,2013-02-02 14:25:00,
2013-02-02 08:30:00,1.0,-3.5,30.22,North,355,1.0,3.0,81,0.00,,---,0.00,79.00,VWS V14.01,2013-02-02 14:30:00,
2013-02-02 08:35:00,1.1,-3.4,30.22,North,355,2.0,3.0,81,0.00,,---,0.00,67.00,VWS V14.01,2013-02-02 14:35:00,
2013-02-02 08:40:00,1.0,-3.7,30.22,North,355,1.0,3.0,80,0.00,,---,0.00,72.00,VWS V14.01,2013-02-02 14:40:00,
2013-02-02 08:45:00,1.0,-3.7,30.23,North,355,2.0,3.0,80,0.00,,---,0.00,79.00,VWS V14.01,2013-02-02 14:45:00,
2013-02-02 08:51:00,1.1,-3.6,30.23,North,355,1.0,2.0,80,0.00,,---,0.00,90.00,VWS V14.01,2013-02-02 14:51:00,
2013-02-02 08:56:00,1.3,-3.4,30.23,North,355,3.0,3.0,80,0.00,,---,0.00,93.00,VWS V14.01,2013-02-02 14:56:00,
2013-02-02 09:01:00,1.6,-3.1,30.23,North,355,0.0,1.0,80,0.00,,---,0.00,104.00,VWS V14.01,2013-02-02 15:01:00,
2013-02-02 09:06:00,1.6,-3.4,30.23,North,355,1.0,4.0,79,0.00,,---,0.00,97.00,VWS V14.01,2013-02-02 15:06:00,
2013-02-02 09:11:00,1.5,-3.5,30.23,North,355,2.0,3.0,79,0.00,,---,0.00,107.00,VWS V14.01,2013-02-02 15:11:00,
2013-02-02 09:16:00,1.6,-3.7,30.23,North,355,3.0,3.0,78,0.00,,---,0.00,114.00,VWS V14.01,2013-02-02 15:16:00,
2013-02-02 09:21:00,1.7,-3.6,30.23,North,355,2.0,2.0,78,0.00,,---,0.00,132.00,VWS V14.01,2013-02-02 15:21:00,
2013-02-02 09:26:00,1.9,-3.4,30.23,North,355,1.0,2.0,78,0.00,,---,0.00,132.00,VWS V14.01,2013-02-02 15:26:00,
2013-02-02 09:31:00,2.1,-3.2,30.23,North,355,0.0,3.0,78,0.00,,---,0.00,123.00,VWS V14.01,2013-02-02 15:31:00,
2013-02-02 09:36:00,2.2,-3.3,30.23,North,355,2.0,3.0,77,0.00,,---,0.00,123.00,VWS V14.01,2013-02-02 15:36:00,
2013-02-02 09:41:00,2.1,-3.4,30.23,North,355,0.0,2.0,77,0.00,,---,0.00,120.00,VWS V14.01,2013-02-02 15:41:00,
2013-02-02 09:46:00,2.2,-3.6,30.23,North,355,1.0,2.0,76,0.00,,---,0.00,139.00,VWS V14.01,2013-02-02 15:46:00,
2013-02-02 09:51:00,2.3,-3.5,30.23,North,355,2.0,2.0,76,0.00,,---,0.00,148.00,VWS V14.01,2013-02-02 15:51:00,
2013-02-02 09:56:00,2.2,-3.6,30.23,North,355,2.0,3.0,76,0.00,,---,0.00,148.00,VWS V14.01,2013-02-02 15:56:00,
2013-02-02 10:01:00,2.3,-3.8,30.22,North,355,3.0,4.0,75,0.00,,---,0.00,151.00,VWS V14.01,2013-02-02 16:01:00,
2013-02-02 10:06:00,2.3,-3.8,30.22,North,355,2.0,3.0,75,0.00,,---,0.00,137.00,VWS V14.01,2013-02-02 16:06:00,
2013-02-02 10:11:00,2.6,-3.5,30.22,North,355,1.0,3.0,75,0.00,,---,0.00,160.00,VWS V14.01,2013-02-02 16:11:00,
2013-02-02 10:16:00,2.8,-3.3,30.21,North,355,2.0,4.0,75,0.00,,---,0.00,142.00,VWS V14.01,2013-02-02 16:16:00,
2013-02-02 10:21:00,2.6,-3.5,30.21,North,355,2.0,4.0,75,0.00,,---,0.00,160.00,VWS V14.01,2013-02-02 16:21:00,
2013-02-02 10:27:00,2.6,-3.5,30.21,North,355,0.0,3.0,75,0.00,,---,0.00,176.00,VWS V14.01,2013-02-02 16:27:00,
2013-02-02 10:32:00,3.4,-2.7,30.21,North,355,0.0,0.0,75,0.00,,---,0.00,176.00,VWS V14.01,2013-02-02 16:32:00,
2013-02-02 10:37:00,3.4,-3.0,30.21,North,355,2.0,3.0,74,0.00,,---,0.00,174.00,VWS V14.01,2013-02-02 16:37:00,
2013-02-02 10:42:00,3.2,-3.5,30.21,North,355,2.0,3.0,73,0.00,,---,0.00,185.00,VWS V14.01,2013-02-02 16:42:00,
2013-02-02 10:47:00,3.3,-3.4,30.22,North,355,1.0,4.0,73,0.00,,---,0.00,202.00,VWS V14.01,2013-02-02 16:47:00,
2013-02-02 10:52:00,3.5,-3.2,30.22,North,355,2.0,4.0,73,0.00,,---,0.00,227.00,VWS V14.01,2013-02-02 16:52:00,
2013-02-02 10:57:00,3.7,-3.0,30.22,North,355,1.0,2.0,73,0.00,,---,0.00,250.00,VWS V14.01,2013-02-02 16:57:00,
2013-02-02 11:02:00,3.9,-2.8,30.22,North,355,0.0,2.0,73,0.00,,---,0.00,265.00,VWS V14.01,2013-02-02 17:02:00,
2013-02-02 11:07:00,4.5,-2.2,30.22,North,355,2.0,2.0,73,0.00,,---,0.00,272.00,VWS V14.01,2013-02-02 17:07:00,
2013-02-02 11:12:00,4.2,-2.8,30.22,North,355,0.0,0.0,72,0.00,,---,0.00,283.00,VWS V14.01,2013-02-02 17:12:00,
2013-02-02 11:17:00,4.7,-2.3,30.22,North,355,0.0,2.0,72,0.00,,---,0.00,302.00,VWS V14.01,2013-02-02 17:17:00,
2013-02-02 11:22:00,4.8,-2.5,30.22,North,355,0.0,0.0,71,0.00,,---,0.00,315.00,VWS V14.01,2013-02-02 17:22:00,
2013-02-02 11:28:00,5.1,0.0,30.22,North,355,0.0,0.0,79,0.00,,---,0.00,309.00,VWS V14.01,2013-02-02 17:28:00,
2013-02-02 11:33:00,5.9,-1.5,30.22,North,355,3.0,3.0,71,0.00,,---,0.00,353.00,VWS V14.01,2013-02-02 17:33:00,
2013-02-02 11:38:00,5.4,-2.5,30.22,North,355,1.0,1.0,69,0.00,,---,0.00,348.00,VWS V14.01,2013-02-02 17:38:00,
2013-02-02 11:43:00,5.1,-2.8,30.22,North,355,3.0,3.0,69,0.00,,---,0.00,329.00,VWS V14.01,2013-02-02 17:43:00,
2013-02-02 11:48:00,5.1,-2.5,30.21,North,355,0.0,0.0,70,0.00,,---,0.00,348.00,VWS V14.01,2013-02-02 17:48:00,
2013-02-02 11:53:00,5.2,-2.4,30.21,North,355,3.0,3.0,70,0.00,,---,0.00,295.00,VWS V14.01,2013-02-02 17:53:00,
2013-02-02 11:58:00,5.0,-2.6,30.21,North,355,0.0,0.0,70,0.00,,---,0.00,304.00,VWS V14.01,2013-02-02 17:58:00,
2013-02-02 12:03:00,5.4,-1.9,30.21,North,355,3.0,4.0,71,0.00,,---,0.00,299.00,VWS V14.01,2013-02-02 18:03:00,
2013-02-02 12:08:00,5.4,-1.9,30.21,NNW,345,4.0,5.0,71,0.00,,---,0.00,338.00,VWS V14.01,2013-02-02 18:08:00,
2013-02-02 12:13:00,5.4,-1.9,30.21,NNW,345,1.0,3.0,71,0.00,,---,0.00,371.00,VWS V14.01,2013-02-02 18:13:00,
2013-02-02 12:18:00,6.0,-1.4,30.19,NNW,345,0.0,0.0,71,0.00,,---,0.00,422.00,VWS V14.01,2013-02-02 18:18:00,
2013-02-02 12:23:00,6.3,-1.4,30.19,NNW,345,0.0,2.0,70,0.00,,---,0.00,334.00,VWS V14.01,2013-02-02 18:23:00,
2013-02-02 12:28:00,6.5,-1.2,30.19,NNW,345,0.0,4.0,70,0.00,,---,0.00,485.00,VWS V14.01,2013-02-02 18:28:00,
2013-02-02 12:34:00,6.7,-1.3,30.18,NNW,333,1.0,5.0,69,0.00,,---,0.00,422.00,VWS V14.01,2013-02-02 18:34:00,
2013-02-02 12:39:00,6.8,-1.2,30.18,NNW,333,4.0,4.0,69,0.00,,---,0.00,369.00,VWS V14.01,2013-02-02 18:39:00,
2013-02-02 12:44:00,6.8,-1.2,30.18,NNW,333,2.0,4.0,69,0.00,,---,0.00,366.00,VWS V14.01,2013-02-02 18:44:00,
2013-02-02 12:49:00,6.7,-1.3,30.17,NNW,333,0.0,3.0,69,0.00,,---,0.00,394.00,VWS V14.01,2013-02-02 18:49:00,
2013-02-02 12:54:00,7.2,-0.8,30.17,NNW,333,2.0,5.0,69,0.00,,---,0.00,373.00,VWS V14.01,2013-02-02 18:54:00,
2013-02-02 12:59:00,7.5,-0.5,30.17,NNW,333,0.0,0.0,69,0.00,,---,0.00,348.00,VWS V14.01,2013-02-02 18:59:00,
2013-02-02 13:04:00,7.7,-0.3,30.17,NNW,331,3.0,5.0,69,0.00,,---,0.00,366.00,VWS V14.01,2013-02-02 19:04:00,
2013-02-02 13:09:00,7.8,-0.2,30.17,NNW,333,0.0,2.0,69,0.00,,---,0.00,381.00,VWS V14.01,2013-02-02 19:09:00,
2013-02-02 13:14:00,7.8,-0.6,30.17,NW,320,3.0,6.0,68,0.00,,---,0.00,396.00,VWS V14.01,2013-02-02 19:14:00,
2013-02-02 13:19:00,7.7,-0.6,30.16,NW,312,4.0,6.0,68,0.00,,---,0.00,411.00,VWS V14.01,2013-02-02 19:19:00,
2013-02-02 13:24:00,7.8,-0.6,30.16,WNW,300,2.0,5.0,68,0.00,,---,0.00,366.00,VWS V14.01,2013-02-02 19:24:00,
2013-02-02 13:30:00,8.5,0.4,30.16,WNW,298,5.0,5.0,69,0.00,,---,0.00,448.00,VWS V14.01,2013-02-02 19:30:00,
2013-02-02 13:35:00,8.9,0.5,30.15,WNW,296,0.0,4.0,68,0.00,,---,0.00,315.00,VWS V14.01,2013-02-02 19:35:00,
2013-02-02 13:40:00,9.1,0.7,30.15,WNW,295,0.0,2.0,68,0.00,,---,0.00,380.00,VWS V14.01,2013-02-02 19:40:00,
2013-02-02 13:45:00,9.1,0.7,30.15,WNW,285,1.0,6.0,68,0.00,,---,0.00,334.00,VWS V14.01,2013-02-02 19:45:00,
2013-02-02 13:50:00,8.9,0.2,30.14,WNW,284,5.0,6.0,67,0.00,,---,0.00,415.00,VWS V14.01,2013-02-02 19:50:00,
2013-02-02 13:55:00,8.9,0.5,30.14,WNW,285,4.0,4.0,68,0.00,,---,0.00,302.00,VWS V14.01,2013-02-02 19:55:00,
2013-02-02 14:00:00,9.0,0.6,30.14,WNW,288,4.0,4.0,68,0.00,,---,0.00,309.00,VWS V14.01,2013-02-02 20:00:00,
2013-02-02 14:05:00,9.3,0.9,30.14,WNW,284,3.0,3.0,68,0.00,,---,0.00,278.00,VWS V14.01,2013-02-02 20:05:00,
2013-02-02 14:10:00,9.1,0.7,30.14,WNW,289,1.0,3.0,68,0.00,,---,0.00,255.00,VWS V14.01,2013-02-02 20:10:00,
2013-02-02 14:15:00,9.1,0.7,30.14,WNW,289,0.0,2.0,68,0.00,,---,0.00,274.00,VWS V14.01,2013-02-02 20:15:00,
2013-02-02 14:20:00,9.3,0.9,30.11,WNW,294,0.0,4.0,68,0.00,,---,0.00,265.00,VWS V14.01,2013-02-02 20:20:00,
2013-02-02 14:25:00,9.9,1.5,30.11,WNW,290,3.0,6.0,68,0.00,,---,0.00,162.00,VWS V14.01,2013-02-02 20:25:00,
2013-02-02 14:30:00,10.0,1.6,30.11,WNW,290,0.0,2.0,68,0.00,,---,0.00,207.00,VWS V14.01,2013-02-02 20:30:00,
2013-02-02 14:35:00,10.6,1.8,30.11,WNW,290,0.0,2.0,67,0.00,,---,0.00,274.00,VWS V14.01,2013-02-02 20:35:00,
2013-02-02 14:40:00,11.1,2.0,30.11,WNW,284,4.0,5.0,66,0.00,,---,0.00,260.00,VWS V14.01,2013-02-02 20:40:00,
2013-02-02 14:45:00,10.8,1.0,30.11,West,264,8.0,8.0,64,0.00,,---,0.00,292.00,VWS V14.01,2013-02-02 20:45:00,
2013-02-02 14:50:00,10.6,0.8,30.11,SW,221,6.0,10.0,64,0.00,,---,0.00,290.00,VWS V14.01,2013-02-02 20:50:00,
2013-02-02 14:55:00,10.8,1.4,30.11,SW,221,6.0,6.0,65,0.00,,---,0.00,272.00,VWS V14.01,2013-02-02 20:55:00,
2013-02-02 15:00:00,11.3,1.5,30.11,SW,221,2.0,5.0,64,0.00,,---,0.00,239.00,VWS V14.01,2013-02-02 21:00:00,
2013-02-02 15:05:00,11.4,1.3,30.11,SW,222,5.0,5.0,63,0.00,,---,0.00,287.00,VWS V14.01,2013-02-02 21:05:00,
2013-02-02 15:10:00,11.3,1.5,30.11,SW,219,3.0,7.0,64,0.00,,---,0.00,269.00,VWS V14.01,2013-02-02 21:10:00,
2013-02-02 15:16:00,11.6,1.8,30.11,WSW,246,6.0,7.0,64,0.00,,---,0.00,265.00,VWS V14.01,2013-02-02 21:16:00,
2013-02-02 15:21:00,11.3,1.2,30.11,SW,226,5.0,7.0,63,0.00,,---,0.00,151.00,VWS V14.01,2013-02-02 21:21:00,
2013-02-02 15:26:00,11.0,1.2,30.11,SW,223,4.0,7.0,64,0.00,,---,0.00,213.00,VWS V14.01,2013-02-02 21:26:00,
2013-02-02 15:31:00,11.2,1.4,30.10,SW,219,3.0,9.0,64,0.00,,---,0.00,225.00,VWS V14.01,2013-02-02 21:31:00,
2013-02-02 15:36:00,11.1,1.3,30.10,WSW,238,5.0,7.0,64,0.00,,---,0.00,223.00,VWS V14.01,2013-02-02 21:36:00,
2013-02-02 15:41:00,11.4,1.6,30.10,SW,233,5.0,5.0,64,0.00,,---,0.00,239.00,VWS V14.01,2013-02-02 21:41:00,
2013-02-02 15:46:00,11.3,1.5,30.09,SW,225,7.0,10.0,64,0.00,,---,0.00,229.00,VWS V14.01,2013-02-02 21:46:00,
2013-02-02 15:51:00,11.7,2.2,30.09,SW,228,7.0,7.0,65,0.00,,---,0.00,206.00,VWS V14.01,2013-02-02 21:51:00,
2013-02-02 15:56:00,11.6,1.8,30.09,SW,230,9.0,11.0,64,0.00,,---,0.00,137.00,VWS V14.01,2013-02-02 21:56:00,
2013-02-02 16:01:00,11.1,1.3,30.09,WSW,244,5.0,8.0,64,0.00,,---,0.00,91.00,VWS V14.01,2013-02-02 22:01:00,
2013-02-02 16:06:00,10.8,1.4,30.09,WSW,240,1.0,6.0,65,0.00,,---,0.00,97.00,VWS V14.01,2013-02-02 22:06:00,
2013-02-02 16:12:00,10.6,1.2,30.09,SW,225,4.0,8.0,65,0.00,,---,0.00,93.00,VWS V14.01,2013-02-02 22:12:00,
2013-02-02 16:17:00,10.7,1.6,30.08,SW,225,4.0,6.0,66,0.00,,---,0.00,88.00,VWS V14.01,2013-02-02 22:17:00,
2013-02-02 16:22:00,10.6,1.5,30.08,SW,225,6.0,7.0,66,0.00,,---,0.00,83.00,VWS V14.01,2013-02-02 22:22:00,
2013-02-02 16:27:00,10.7,1.6,30.08,SW,225,6.0,7.0,66,0.00,,---,0.00,69.00,VWS V14.01,2013-02-02 22:27:00,
2013-02-02 16:32:00,10.7,1.6,30.08,SW,217,4.0,6.0,66,0.00,,---,0.00,49.00,VWS V14.01,2013-02-02 22:32:00,
2013-02-02 16:37:00,10.6,1.5,30.08,SW,230,4.0,6.0,66,0.00,,---,0.00,46.00,VWS V14.01,2013-02-02 22:37:00,
2013-02-02 16:42:00,10.5,1.7,30.08,SW,236,2.0,6.0,67,0.00,,---,0.00,49.00,VWS V14.01,2013-02-02 22:42:00,
2013-02-02 16:47:00,10.3,1.5,30.08,SW,232,6.0,6.0,67,0.00,,---,0.00,39.00,VWS V14.01,2013-02-02 22:47:00,
2013-02-02 16:52:00,10.3,1.5,30.08,SW,230,4.0,5.0,67,0.00,,---,0.00,26.00,VWS V14.01,2013-02-02 22:52:00,
2013-02-02 16:57:00,10.2,1.8,30.08,SW,227,2.0,6.0,68,0.00,,---,0.00,21.00,VWS V14.01,2013-02-02 22:57:00,
2013-02-02 17:02:00,10.1,1.7,30.08,SW,227,0.0,4.0,68,0.00,,---,0.00,18.00,VWS V14.01,2013-02-02 23:02:00,
2013-02-02 17:07:00,10.1,1.7,30.08,SW,223,3.0,5.0,68,0.00,,---,0.00,12.00,VWS V14.01,2013-02-02 23:07:00,
2013-02-02 17:12:00,10.0,1.6,30.08,SW,223,3.0,7.0,68,0.00,,---,0.00,7.00,VWS V14.01,2013-02-02 23:12:00,
2013-02-02 17:17:00,9.9,1.5,30.08,SW,223,5.0,7.0,68,0.00,,---,0.00,0.00,VWS V14.01,2013-02-02 23:17:00,
2013-02-02 17:22:00,9.8,1.4,30.08,SW,222,2.0,6.0,68,0.00,,---,0.00,0.00,VWS V14.01,2013-02-02 23:22:00,
2013-02-02 17:28:00,9.8,1.4,30.08,SW,223,0.0,3.0,68,0.00,,---,0.00,0.00,VWS V14.01,2013-02-02 23:28:00,
2013-02-02 17:33:00,9.9,1.8,30.06,SW,223,3.0,4.0,69,0.00,,---,0.00,0.00,VWS V14.01,2013-02-02 23:33:00,
2013-02-02 17:38:00,10.0,1.9,30.06,SW,223,3.0,7.0,69,0.00,,---,0.00,0.00,VWS V14.01,2013-02-02 23:38:00,
2013-02-02 17:43:00,9.9,1.8,30.06,SW,223,0.0,4.0,69,0.00,,---,0.00,0.00,VWS V14.01,2013-02-02 23:43:00,
2013-02-02 17:48:00,9.8,2.3,30.07,SW,223,1.0,4.0,71,0.00,,---,0.00,0.00,VWS V14.01,2013-02-02 23:48:00,
2013-02-02 17:53:00,9.7,2.5,30.07,SW,223,3.0,4.0,72,0.00,,---,0.00,0.00,VWS V14.01,2013-02-02 23:53:00,
2013-02-02 17:58:00,9.6,2.7,30.07,SW,223,4.0,5.0,73,0.00,,---,0.00,0.00,VWS V14.01,2013-02-02 23:58:00,
2013-02-02 18:03:00,9.6,3.0,30.07,SW,222,3.0,6.0,74,0.00,,---,0.00,0.00,VWS V14.01,2013-02-03 00:03:00,
2013-02-02 18:08:00,9.6,3.0,30.07,SW,222,2.0,4.0,74,0.00,,---,0.00,0.00,VWS V14.01,2013-02-03 00:08:00,
2013-02-02 18:13:00,9.5,3.2,30.07,SW,222,3.0,3.0,75,0.00,,---,0.00,0.00,VWS V14.01,2013-02-03 00:13:00,
2013-02-02 18:18:00,9.6,3.6,30.05,SW,222,5.0,5.0,76,0.00,,---,0.00,0.00,VWS V14.01,2013-02-03 00:18:00,
2013-02-02 18:23:00,9.6,3.8,30.05,SW,221,5.0,5.0,77,0.00,,---,0.00,0.00,VWS V14.01,2013-02-03 00:23:00,
2013-02-02 18:28:00,9.6,4.4,30.05,SW,215,3.0,6.0,79,0.00,,---,0.00,0.00,VWS V14.01,2013-02-03 00:28:00,
2013-02-02 18:33:00,9.4,4.5,30.05,SSW,207,4.0,6.0,80,0.00,,---,0.00,0.00,VWS V14.01,2013-02-03 00:33:00,
2013-02-02 18:39:00,9.4,4.5,30.05,SSW,196,3.0,9.0,80,0.00,,---,0.00,0.00,VWS V14.01,2013-02-03 00:39:00,
2013-02-02 18:44:00,9.2,4.6,30.05,SSW,198,5.0,10.0,81,0.00,,---,0.00,0.00,VWS V14.01,2013-02-03 00:44:00,
2013-02-02 18:49:00,9.2,4.8,30.03,SSW,197,4.0,7.0,82,0.00,,---,0.00,0.00,VWS V14.01,2013-02-03 00:49:00,
2013-02-02 18:54:00,9.2,4.8,30.03,SSW,198,3.0,4.0,82,0.00,,---,0.00,0.00,VWS V14.01,2013-02-03 00:54:00,
2013-02-02 18:59:00,9.1,4.7,30.03,SSW,198,4.0,5.0,82,0.00,,---,0.00,0.00,VWS V14.01,2013-02-03 00:59:00,
2013-02-02 19:04:00,9.1,5.0,30.03,SSW,198,4.0,5.0,83,0.00,,---,0.00,0.00,VWS V14.01,2013-02-03 01:04:00,
2013-02-02 19:09:00,9.1,5.0,30.03,SSW,199,4.0,5.0,83,0.00,,---,0.00,0.00,VWS V14.01,2013-02-03 01:09:00,
2013-02-02 19:14:00,9.1,5.0,30.03,SSW,200,5.0,6.0,83,0.00,,---,0.00,0.00,VWS V14.01,2013-02-03 01:14:00,
2013-02-02 19:19:00,9.0,5.2,30.05,SSW,200,2.0,5.0,84,0.00,,---,0.00,0.00,VWS V14.01,2013-02-03 01:19:00,
2013-02-02 19:24:00,9.1,5.3,30.05,SSW,200,1.0,5.0,84,0.00,,---,0.00,0.00,VWS V14.01,2013-02-03 01:24:00,
2013-02-02 19:29:00,9.2,5.4,30.05,SSW,200,0.0,1.0,84,0.00,,---,0.00,0.00,VWS V14.01,2013-02-03 01:29:00,
2013-02-02 19:35:00,9.2,5.4,30.05,SSW,200,2.0,3.0,84,0.00,,---,0.00,0.00,VWS V14.01,2013-02-03 01:35:00,
2013-02-02 19:40:00,9.2,5.4,30.05,SSW,200,2.0,2.0,84,0.00,,---,0.00,0.00,VWS V14.01,2013-02-03 01:40:00,
2013-02-02 19:45:00,9.2,5.4,30.05,SSW,200,2.0,2.0,84,0.00,,---,0.00,0.00,VWS V14.01,2013-02-03 01:45:00,
2013-02-02 19:50:00,9.2,5.4,30.04,SSW,200,0.0,3.0,84,0.00,,---,0.00,0.00,VWS V14.01,2013-02-03 01:50:00,
2013-02-02 19:55:00,9.3,5.4,30.04,SSW,200,0.0,3.0,84,0.00,,---,0.00,0.00,VWS V14.01,2013-02-03 01:55:00,
2013-02-02 20:00:00,9.3,5.4,30.04,SSW,200,1.0,3.0,84,0.00,,---,0.00,0.00,VWS V14.01,2013-02-03 02:00:00,
2013-02-02 20:05:00,9.3,5.4,30.03,SSW,200,0.0,4.0,84,0.00,,---,0.00,0.00,VWS V14.01,2013-02-03 02:05:00,
2013-02-02 20:10:00,9.4,5.6,30.03,SSW,200,2.0,2.0,84,0.00,,---,0.00,0.00,VWS V14.01,2013-02-03 02:10:00,
2013-02-02 20:15:00,9.4,5.6,30.03,SSW,200,0.0,3.0,84,0.00,,---,0.00,0.00,VWS V14.01,2013-02-03 02:15:00,
2013-02-02 20:20:00,9.4,5.6,30.03,SSW,200,2.0,2.0,84,0.00,,---,0.00,0.00,VWS V14.01,2013-02-03 02:20:00,
2013-02-02 20:25:00,9.5,5.7,30.03,SSW,200,0.0,3.0,84,0.00,,---,0.00,0.00,VWS V14.01,2013-02-03 02:25:00,
2013-02-02 20:30:00,9.5,5.7,30.03,SSW,200,0.0,2.0,84,0.00,,---,0.00,0.00,VWS V14.01,2013-02-03 02:30:00,
2013-02-02 20:35:00,9.4,5.6,30.03,SSW,200,1.0,3.0,84,0.00,,---,0.00,0.00,VWS V14.01,2013-02-03 02:35:00,
2013-02-02 20:40:00,9.5,5.9,30.03,SSW,200,2.0,3.0,85,0.00,,---,0.00,0.00,VWS V14.01,2013-02-03 02:40:00,
2013-02-02 20:45:00,9.5,5.9,30.02,SSW,199,3.0,4.0,85,0.00,,---,0.00,0.00,VWS V14.01,2013-02-03 02:45:00,
2013-02-02 20:50:00,9.5,5.9,30.02,SSW,200,2.0,4.0,85,0.00,,---,0.00,0.00,VWS V14.01,2013-02-03 02:50:00,
2013-02-02 20:56:00,9.6,6.0,30.02,SSW,200,2.0,4.0,85,0.00,,---,0.00,0.00,VWS V14.01,2013-02-03 02:56:00,
2013-02-02 21:01:00,9.6,6.0,30.02,SSW,200,0.0,0.0,85,0.00,,---,0.00,0.00,VWS V14.01,2013-02-03 03:01:00,
2013-02-02 21:06:00,9.6,6.0,30.02,SSW,200,0.0,0.0,85,0.00,,---,0.00,0.00,VWS V14.01,2013-02-03 03:06:00,
2013-02-02 21:11:00,9.6,6.0,30.02,SSW,200,0.0,0.0,85,0.00,,---,0.00,0.00,VWS V14.01,2013-02-03 03:11:00,
2013-02-02 21:16:00,9.6,6.0,30.02,SSW,200,0.0,0.0,85,0.00,,---,0.00,0.00,VWS V14.01,2013-02-03 03:16:00,
2013-02-02 21:21:00,9.5,5.9,30.02,SSW,199,0.0,0.0,85,0.00,,---,0.00,0.00,VWS V14.01,2013-02-03 03:21:00,
2013-02-02 21:26:00,9.6,6.0,30.02,SSW,200,0.0,0.0,85,0.00,,---,0.00,0.00,VWS V14.01,2013-02-03 03:26:00,
2013-02-02 21:31:00,9.6,6.0,30.02,SSW,199,0.0,0.0,85,0.00,,---,0.00,0.00,VWS V14.01,2013-02-03 03:31:00,
2013-02-02 21:36:00,9.6,6.0,30.02,SSW,200,0.0,0.0,85,0.00,,---,0.00,0.00,VWS V14.01,2013-02-03 03:36:00,
2013-02-02 21:41:00,9.7,6.1,30.02,SSW,200,0.0,0.0,85,0.00,,---,0.00,0.00,VWS V14.01,2013-02-03 03:41:00,
2013-02-02 21:46:00,9.8,6.2,30.02,SSW,200,0.0,0.0,85,0.00,,---,0.00,0.00,VWS V14.01,2013-02-03 03:46:00,
2013-02-02 21:51:00,9.8,6.2,30.02,SSW,200,0.0,0.0,85,0.00,,---,0.00,0.00,VWS V14.01,2013-02-03 03:51:00,
2013-02-02 21:56:00,9.8,6.2,30.02,SSW,200,0.0,0.0,85,0.00,,---,0.00,0.00,VWS V14.01,2013-02-03 03:56:00,
2013-02-02 22:01:00,9.8,6.2,30.02,SSW,200,0.0,0.0,85,0.00,,---,0.00,0.00,VWS V14.01,2013-02-03 04:01:00,
2013-02-02 22:07:00,9.8,6.5,30.02,SSW,200,0.0,0.0,86,0.00,,---,0.00,0.00,VWS V14.01,2013-02-03 04:07:00,
2013-02-02 22:12:00,9.8,6.5,30.02,SSW,200,0.0,0.0,86,0.00,,---,0.00,0.00,VWS V14.01,2013-02-03 04:12:00,
2013-02-02 22:17:00,9.8,6.5,30.01,SSW,200,0.0,0.0,86,0.00,,---,0.00,0.00,VWS V14.01,2013-02-03 04:17:00,
2013-02-02 22:22:00,9.8,6.5,30.01,SSW,200,0.0,0.0,86,0.00,,---,0.00,0.00,VWS V14.01,2013-02-03 04:22:00,
2013-02-02 22:27:00,9.8,6.5,30.01,SSW,199,0.0,0.0,86,0.00,,---,0.00,0.00,VWS V14.01,2013-02-03 04:27:00,
2013-02-02 22:32:00,9.8,6.5,30.01,SSW,200,0.0,0.0,86,0.00,,---,0.00,0.00,VWS V14.01,2013-02-03 04:32:00,
2013-02-02 22:37:00,9.9,6.6,30.01,SSW,200,0.0,0.0,86,0.00,,---,0.00,0.00,VWS V14.01,2013-02-03 04:37:00,
2013-02-02 22:42:00,9.9,6.6,30.01,SSW,199,0.0,0.0,86,0.00,,---,0.00,0.00,VWS V14.01,2013-02-03 04:42:00,
2013-02-02 22:47:00,9.9,6.6,30.01,SSW,200,0.0,0.0,86,0.00,,---,0.00,0.00,VWS V14.01,2013-02-03 04:47:00,
2013-02-02 22:52:00,9.8,6.5,30.01,SSW,200,0.0,0.0,86,0.00,,---,0.00,0.00,VWS V14.01,2013-02-03 04:52:00,
2013-02-02 22:57:00,9.8,6.5,30.01,SSW,200,0.0,0.0,86,0.00,,---,0.00,0.00,VWS V14.01,2013-02-03 04:57:00,
2013-02-02 23:00:00,9.8,6.5,30.01,SSW,200,0.0,0.0,86,0.00,,---,0.00,0.00,VWS V14.01,2013-02-03 05:00:00,
2013-02-02 23:01:00,9.8,6.5,30.01,SSW,200,0.0,0.0,86,0.00,,---,0.00,0.00,VWS V14.01,2013-02-03 05:01:00,
2013-02-02 23:03:00,9.8,6.5,30.01,SSW,200,0.0,0.0,86,0.00,,---,0.00,0.00,VWS V14.01,2013-02-03 05:03:00,
2013-02-02 23:08:00,9.8,6.5,30.01,SSW,200,0.0,0.0,86,0.00,,---,0.00,0.00,VWS V14.01,2013-02-03 05:08:00,
2013-02-02 23:13:00,9.9,6.6,30.01,SSW,199,0.0,0.0,86,0.00,,---,0.00,0.00,VWS V14.01,2013-02-03 05:13:00,
2013-02-02 23:18:00,9.9,6.6,30.01,SSW,200,0.0,0.0,86,0.00,,---,0.00,0.00,VWS V14.01,2013-02-03 05:18:00,
2013-02-02 23:23:00,10.0,6.7,30.01,SSW,199,0.0,0.0,86,0.00,,---,0.00,0.00,VWS V14.01,2013-02-03 05:23:00,
2013-02-02 23:28:00,10.0,6.7,30.01,SSW,200,0.0,0.0,86,0.00,,---,0.00,0.00,VWS V14.01,2013-02-03 05:28:00,
2013-02-02 23:33:00,10.0,6.7,30.01,SSW,200,2.0,2.0,86,0.00,,---,0.00,0.00,VWS V14.01,2013-02-03 05:33:00,
2013-02-02 23:38:00,10.1,6.8,30.01,SSW,200,1.0,2.0,86,0.00,,---,0.00,0.00,VWS V14.01,2013-02-03 05:38:00,
2013-02-02 23:43:00,10.1,7.0,30.01,SSW,200,3.0,3.0,87,0.00,,---,0.00,0.00,VWS V14.01,2013-02-03 05:43:00,
2013-02-02 23:48:00,10.1,7.0,30.02,SSW,200,2.0,4.0,87,0.00,,---,0.00,0.00,VWS V14.01,2013-02-03 05:48:00,
2013-02-02 23:53:00,10.1,7.0,30.02,SW,217,3.0,4.0,87,0.00,,---,0.00,0.00,VWS V14.01,2013-02-03 05:53:00,
2013-02-02 23:58:00,10.1,7.0,30.02,SW,221,4.0,5.0,87,0.00,,---,0.00,0.00,VWS V14.01,2013-02-03 05:58:00,